Ironwood, MI

2:05 AM CDT on April 24, 2017 (GMT -0500)
Gogebic-Iron County

Weather History for KIWD - December, 2013

Change the Weather History Date:

Tuesday, December 3, 2013

  Actual Average Record
Temperature  
Mean Temperature 27 °F -  
Max Temperature 30 °F 30 °F 57 °F (1998)
Min Temperature 24 °F 18 °F 0 °F (2004)
Degree Days  
Heating Degree Days 38    
Moisture  
Dew Point 22 °F    
Average Humidity 79    
Maximum Humidity 86    
Minimum Humidity 69    
Precipitation  
Precipitation 0.00 in - - ()
Sea Level Pressure  
Sea Level Pressure 29.79 in    
Wind  
Wind Speed 12 mph (East)    
Max Wind Speed 21 mph    
Max Gust Speed 29 mph    
Visibility 8 miles    
Events      
Averages and records for this station are not official NWS values.
T = Trace of Precipitation, MM = Missing Value Source: NWS Daily Summary

Daily Weather History Graph

Daily Weather History Graph

Search for Another Location

Airport or City:

Trip Planner

Search our weather history database for the weather conditions in past years. The results will help you decide how hot, cold, wet, or windy it might be!

Date:

Astronomy

Dec. 03, 2013 Rise Set
Actual Time 7:26 AM CST 4:14 PM CST
Civil Twilight 6:52 AM CST 4:48 PM CST
Nautical Twilight 6:14 AM CST 5:26 PM CST
Astronomical Twilight 5:37 AM CST 6:03 PM CST
Moon 7:54 AM CST (12/3) 5:19 PM CST (12/3)
Length of Visible Light 9h 56m
Length of Day
8h 47m
New Moon, 1% of the Moon is Illuminated
Dec 3
New Moon
Dec 9
First Quarter
Dec 17
Full
Dec 25
Last Quarter
Jan 1
New

Hourly Weather History & Observations

Time (CST) Temp. Windchill Dew Point Humidity Pressure Visibility Wind Dir Wind Speed Gust Speed Precip Events Conditions
12:15 AM 30.2 °F 21.9 °F 24.8 °F 80% 29.73 in 2.5 mi East 9.2 mph - N/A   Overcast
12:35 AM 30.2 °F 23.4 °F 24.8 °F 80% 29.73 in 1.8 mi East 6.9 mph - N/A   Overcast
12:55 AM 30.2 °F 22.6 °F 26.6 °F 86% 29.73 in 1.5 mi East 8.1 mph - N/A   Overcast
1:15 AM 30.2 °F 21.9 °F 26.6 °F 86% 29.72 in 1.8 mi East 9.2 mph - N/A   Overcast
1:35 AM 30.2 °F 21.3 °F 26.6 °F 86% 29.72 in 1.8 mi East 10.4 mph - N/A   Overcast
1:55 AM 30.2 °F 21.9 °F 26.6 °F 86% 29.72 in 1.5 mi East 9.2 mph - N/A   Overcast
2:15 AM 30.2 °F 21.3 °F 26.6 °F 86% 29.72 in 2.5 mi East 10.4 mph - N/A   Overcast
2:35 AM 30.2 °F 21.9 °F 26.6 °F 86% 29.72 in 2.0 mi East 9.2 mph - N/A   Overcast
2:55 AM 30.2 °F 21.9 °F 26.6 °F 86% 29.72 in 4.0 mi East 9.2 mph - N/A   Overcast
3:15 AM 30.2 °F 21.9 °F 24.8 °F 80% 29.72 in 2.5 mi East 9.2 mph - N/A   Overcast
3:35 AM 30.2 °F 21.3 °F 26.6 °F 86% 29.72 in 2.5 mi East 10.4 mph - N/A   Overcast
3:55 AM 28.4 °F 19.1 °F 24.8 °F 86% 29.72 in 2.0 mi East 10.4 mph - N/A   Overcast
4:15 AM 28.4 °F 19.1 °F 24.8 °F 86% 29.72 in 2.5 mi East 10.4 mph - N/A   Overcast
4:35 AM 28.4 °F 18.0 °F 24.8 °F 86% 29.72 in 2.5 mi East 12.7 mph - N/A   Overcast
4:55 AM 28.4 °F 18.0 °F 24.8 °F 86% 29.73 in 2.0 mi East 12.7 mph - N/A   Overcast
5:15 AM 28.4 °F 17.5 °F 24.8 °F 86% 29.72 in 3.0 mi East 13.8 mph 20.7 mph N/A   Overcast
5:35 AM 28.4 °F 17.5 °F 24.8 °F 86% 29.73 in 3.0 mi East 13.8 mph - N/A   Mostly Cloudy
5:55 AM 28.4 °F 16.6 °F 24.8 °F 86% 29.74 in 5.0 mi East 16.1 mph - N/A   Overcast
6:15 AM 28.4 °F 17.5 °F 24.8 °F 86% 29.74 in 10.0 mi East 13.8 mph - N/A   Overcast
6:35 AM 28.4 °F 17.0 °F 24.8 °F 86% 29.75 in 10.0 mi East 15.0 mph - N/A   Overcast
6:55 AM 28.4 °F 17.0 °F 24.8 °F 86% 29.75 in 9.0 mi East 15.0 mph - N/A   Overcast
7:15 AM 28.4 °F 16.6 °F 23.0 °F 80% 29.75 in 10.0 mi East 16.1 mph - N/A   Overcast
7:35 AM 28.4 °F 15.8 °F 24.8 °F 86% 29.75 in 10.0 mi East 18.4 mph - N/A   Overcast
7:55 AM 28.4 °F 17.0 °F 24.8 °F 86% 29.77 in 10.0 mi East 15.0 mph - N/A   Overcast
8:15 AM 28.4 °F 17.0 °F 23.0 °F 80% 29.77 in 10.0 mi East 15.0 mph 24.2 mph N/A   Overcast
8:35 AM 28.4 °F 17.0 °F 24.8 °F 86% 29.78 in 10.0 mi East 15.0 mph 20.7 mph N/A   Overcast
8:55 AM 28.4 °F 16.2 °F 24.8 °F 86% 29.78 in 10.0 mi East 17.3 mph - N/A   Mostly Cloudy
9:15 AM 28.4 °F 16.2 °F 23.0 °F 80% 29.78 in 10.0 mi East 17.3 mph 24.2 mph N/A   Overcast
9:35 AM 28.4 °F 16.6 °F 23.0 °F 80% 29.79 in 10.0 mi East 16.1 mph - N/A   Overcast
9:55 AM 28.4 °F 15.1 °F 23.0 °F 80% 29.79 in 10.0 mi East 20.7 mph - N/A   Overcast
10:15 AM 28.4 °F 15.4 °F 21.2 °F 74% 29.80 in 10.0 mi East 19.6 mph 24.2 mph N/A   Overcast
10:35 AM 28.4 °F 15.8 °F 21.2 °F 74% 29.80 in 10.0 mi East 18.4 mph 27.6 mph N/A   Overcast
10:55 AM 28.4 °F 15.8 °F 21.2 °F 74% 29.81 in 10.0 mi East 18.4 mph 24.2 mph N/A   Overcast
11:15 AM 28.4 °F 15.4 °F 21.2 °F 74% 29.80 in 10.0 mi East 19.6 mph 28.8 mph N/A   Overcast
11:35 AM 28.4 °F 16.2 °F 21.2 °F 74% 29.81 in 10.0 mi East 17.3 mph 23.0 mph N/A   Overcast
11:55 AM 28.4 °F 16.2 °F 21.2 °F 74% 29.81 in 10.0 mi East 17.3 mph 21.9 mph N/A   Overcast
12:15 PM 28.4 °F 15.8 °F 21.2 °F 74% 29.81 in 10.0 mi East 18.4 mph 24.2 mph N/A   Overcast
12:35 PM 28.4 °F 15.8 °F 21.2 °F 74% 29.80 in 10.0 mi East 18.4 mph - N/A   Overcast
12:55 PM 28.4 °F 15.8 °F 21.2 °F 74% 29.80 in 10.0 mi East 18.4 mph 27.6 mph N/A   Overcast
1:15 PM 28.4 °F 15.8 °F 19.4 °F 69% 29.80 in 10.0 mi East 18.4 mph 24.2 mph N/A   Overcast
1:35 PM 28.4 °F 16.6 °F 19.4 °F 69% 29.80 in 10.0 mi East 16.1 mph 23.0 mph N/A   Overcast
1:55 PM 28.4 °F 16.2 °F 19.4 °F 69% 29.81 in 10.0 mi East 17.3 mph 25.3 mph N/A   Overcast
2:15 PM 28.4 °F 17.0 °F 19.4 °F 69% 29.81 in 10.0 mi East 15.0 mph 21.9 mph N/A   Overcast
2:35 PM 26.6 °F 14.3 °F 19.4 °F 74% 29.81 in 10.0 mi East 16.1 mph 23.0 mph N/A   Overcast
2:55 PM 28.4 °F 16.2 °F 19.4 °F 69% 29.81 in 10.0 mi East 17.3 mph 21.9 mph N/A   Overcast
3:15 PM 28.4 °F 18.0 °F 19.4 °F 69% 29.82 in 10.0 mi East 12.7 mph 21.9 mph N/A   Overcast
3:35 PM 28.4 °F 19.1 °F 19.4 °F 69% 29.83 in 10.0 mi East 10.4 mph - N/A   Overcast
3:55 PM 28.4 °F 19.1 °F 19.4 °F 69% 29.83 in 10.0 mi East 10.4 mph 17.3 mph N/A   Overcast
4:15 PM 26.6 °F 17.5 °F 19.4 °F 74% 29.83 in 10.0 mi East 9.2 mph - N/A   Overcast
4:35 PM 26.6 °F 16.8 °F 21.2 °F 80% 29.83 in 10.0 mi East 10.4 mph - N/A   Overcast
4:55 PM 26.6 °F 18.2 °F 21.2 °F 80% 29.83 in 10.0 mi ENE 8.1 mph - N/A   Overcast
5:15 PM 26.6 °F 16.2 °F 19.4 °F 74% 29.84 in 10.0 mi ENE 11.5 mph - N/A   Overcast
5:35 PM 26.6 °F 15.7 °F 19.4 °F 74% 29.83 in 10.0 mi ENE 12.7 mph 16.1 mph N/A   Overcast
5:55 PM 26.6 °F 15.7 °F 19.4 °F 74% 29.83 in 10.0 mi ENE 12.7 mph 19.6 mph N/A   Overcast
6:15 PM 26.6 °F 14.7 °F 19.4 °F 74% 29.84 in 10.0 mi ENE 15.0 mph 18.4 mph N/A   Overcast
6:35 PM 26.6 °F 16.8 °F 19.4 °F 74% 29.83 in 10.0 mi ENE 10.4 mph - N/A   Overcast
6:55 PM 26.6 °F 16.8 °F 19.4 °F 74% 29.84 in 10.0 mi ENE 10.4 mph - N/A   Overcast
7:15 PM 26.6 °F 15.7 °F 19.4 °F 74% 29.85 in 10.0 mi ENE 12.7 mph 17.3 mph N/A   Overcast
7:35 PM 26.6 °F 16.8 °F 19.4 °F 74% 29.85 in 10.0 mi ENE 10.4 mph - N/A   Overcast
7:55 PM 26.6 °F 16.2 °F 19.4 °F 74% 29.85 in 10.0 mi East 11.5 mph 18.4 mph N/A   Overcast
8:15 PM 26.6 °F 16.8 °F 19.4 °F 74% 29.85 in 10.0 mi ENE 10.4 mph - N/A   Overcast
8:35 PM 26.6 °F 17.5 °F 19.4 °F 74% 29.85 in 10.0 mi ENE 9.2 mph - N/A   Overcast
8:55 PM 26.6 °F 16.8 °F 19.4 °F 74% 29.86 in 10.0 mi ENE 10.4 mph - N/A   Overcast
9:15 PM 26.6 °F 17.5 °F 19.4 °F 74% 29.86 in 10.0 mi East 9.2 mph - N/A   Overcast
9:35 PM 26.6 °F 18.2 °F 19.4 °F 74% 29.86 in 10.0 mi East 8.1 mph 16.1 mph N/A   Overcast
9:55 PM 24.8 °F 15.3 °F 19.4 °F 80% 29.86 in 3.0 mi ENE 9.2 mph - N/A   Overcast
10:15 PM 24.8 °F 15.3 °F 19.4 °F 80% 29.83 in 4.0 mi ENE 9.2 mph - N/A   Overcast
10:35 PM 24.8 °F 17.9 °F 19.4 °F 80% 29.86 in 4.0 mi NE 5.8 mph - N/A   Overcast
10:55 PM 24.8 °F 16.9 °F 19.4 °F 80% 29.87 in 3.0 mi NE 6.9 mph - N/A   Overcast
11:15 PM 24.8 °F 17.9 °F 19.4 °F 80% 29.87 in 3.0 mi ENE 5.8 mph - N/A   Overcast
11:35 PM 24.8 °F 15.3 °F 19.4 °F 80% 29.86 in 5.0 mi ENE 9.2 mph - N/A   Overcast
11:55 PM 24.8 °F 16.1 °F 19.4 °F 80% 29.86 in 5.0 mi ENE 8.1 mph - N/A   Overcast